| DS18B20 | SHTC3 | ||||||
|---|---|---|---|---|---|---|---|
| ID | Date d/m/Y & Time | data1 สูง | data2 ต่ำ | data3 นอก | temp pcb | hum pcb | Time |
| 9062 | 05/04/2026 15:25:11 | 33.3  | 32.4  | 33.7  | 32.7  | 65.9  | 15:25 |
| 9061 | 05/04/2026 15:20:28 | 33.4  | 32.3  | 33.6  | 32.8  | 66.0  | 15:20 |
| 9060 | 05/04/2026 15:15:46 | 33.4  | 32.3  | 33.7  | 32.7  | 66.0  | 15:15 |
| 9059 | 05/04/2026 15:11:04 | 33.4  | 32.3  | 33.8  | 32.9  | 66.0  | 15:11 |
| 9058 | 05/04/2026 15:06:22 | 33.5  | 32.3  | 33.9  | 32.8  | 66.0  | 15:06 |
| 9057 | 05/04/2026 15:01:40 | 33.5  | 32.3  | 33.9  | 32.9  | 65.9  | 15:01 |
| 9056 | 05/04/2026 14:56:58 | 33.5  | 32.3  | 33.8  | 32.8  | 65.8  | 14:56 |
| 9055 | 05/04/2026 14:52:16 | 33.6  | 32.3  | 33.9  | 32.8  | 65.7  | 14:52 |
| 9054 | 05/04/2026 14:47:34 | 33.6  | 32.2  | 33.8  | 32.9  | 65.7  | 14:47 |
| 9053 | 05/04/2026 14:42:52 | 33.6  | 32.2  | 33.9  | 32.7  | 65.7  | 14:42 |
| 9052 | 05/04/2026 14:38:09 | 33.6  | 32.2  | 33.9  | 32.7  | 65.7  | 14:38 |
| 9051 | 05/04/2026 14:33:27 | 33.6  | 32.2  | 34.0  | 32.9  | 65.5  | 14:33 |
| 9050 | 05/04/2026 14:28:45 | 33.6  | 32.2  | 33.9  | 32.9  | 65.2  | 14:28 |
| 9049 | 05/04/2026 14:24:03 | 33.6  | 32.2  | 34.1  | 33.0  | 65.0  | 14:24 |
| 9048 | 05/04/2026 14:19:20 | 33.6  | 32.1  | 34.4  | 32.8  | 64.7  | 14:19 |
| 9047 | 05/04/2026 14:14:38 | 33.7  | 32.1  | 34.7  | 32.8  | 64.8  | 14:14 |
| 9046 | 05/04/2026 14:09:53 | 33.6  | 32.1  | 34.5  | 32.8  | 64.8  | 14:09 |
| 9045 | 05/04/2026 14:05:11 | 33.6  | 32.1  | 34.9  | 32.8  | 64.5  | 14:05 |
| 9044 | 05/04/2026 14:00:29 | 33.6  | 32.0  | 35.0  | 32.7  | 64.4  | 14:00 |
| 9043 | 05/04/2026 13:55:47 | 33.6  | 31.9  | 34.4  | 32.7  | 64.4  | 13:55 |
| 9042 | 05/04/2026 13:51:03 | 33.6  | 31.9  | 35.0  | 32.8  | 64.5  | 13:51 |
| 9041 | 05/04/2026 13:46:22 | 33.6  | 31.9  | 34.9  | 32.7  | 64.5  | 13:46 |
| 9040 | 05/04/2026 13:41:39 | 33.6  | 31.9  | 34.9  | 32.6  | 64.5  | 13:41 |
| 9039 | 05/04/2026 13:36:57 | 33.6  | 31.8  | 35.0  | 32.7  | 64.3  | 13:36 |